Location: Ostrava
(49.8330°N, 18.2830°E)
Time: 01:23:22
(UTC+01:00)

Cosmos 2219 Rocket - Visible Passes

Search period start: 23 January 2017 00:00
Search period end: 02 February 2017 00:00
Orbit: 829 x 846 km, 71.0° (Epoch: 22 January)

Date Brightness Start Highest point End Pass type
(mag) Time Alt. Az. Time Alt. Az. Time Alt. Az.
23 Jan 2.4 17:28:29 10° SSW 17:34:07 78° WNW 17:39:47 10° NNE visible
23 Jan 4.3 19:14:57 10° W 19:19:02 20° NW 19:22:49 11° N visible
24 Jan 2.3 17:12:08 10° SSW 17:17:46 82° WNW 17:23:26 10° NNE visible
24 Jan 4.3 18:58:25 10° W 19:02:37 21° NW 19:06:49 10° N visible
25 Jan 4.2 18:41:54 10° W 18:46:12 22° NW 18:50:31 10° N visible
26 Jan 4.2 18:25:23 10° W 18:29:48 23° NW 18:34:12 10° NNE visible
27 Jan 4.1 18:08:53 10° W 18:13:23 24° NW 18:17:54 10° NNE visible
28 Jan 4.0 17:52:23 10° W 17:56:58 25° NW 18:01:35 10° NNE visible
29 Jan 4.0 17:35:53 10° W 17:40:34 26° NW 17:45:15 10° NNE visible
30 Jan 3.9 17:19:24 10° WSW 17:24:10 27° NW 17:28:57 10° NNE visible
30 Jan 4.8 19:09:56 10° NNW 19:10:14 10° NNW 19:10:31 10° NNW visible
31 Jan 3.8 17:02:55 10° WSW 17:07:46 29° NW 17:12:38 10° NNE visible
31 Jan 4.7 18:52:52 10° NNW 18:53:46 10° NNW 18:54:41 10° N visible
01 Feb 4.7 18:36:02 10° NW 18:37:19 11° NNW 18:38:35 10° N visible
